Fort Stockton, TX

9:27 AM CDT on May 20, 2018 (GMT -0500)
Fort Stockton-Pecos County

Weather History for KFST - October, 2013

Change the Weather History Date:

Saturday, October 26, 2013

  Actual Average Record
Temperature  
Mean Temperature 64 °F -  
Max Temperature 78 °F 73 °F 90 °F (2011)
Min Temperature 52 °F 51 °F 33 °F (2003)
Degree Days  
Heating Degree Days 2    
Growing Degree Days 14 (Base 50)    
Moisture  
Dew Point 48 °F    
Average Humidity 60    
Maximum Humidity 86    
Minimum Humidity 35    
Precipitation  
Precipitation 0.00 in - - ()
Sea Level Pressure  
Sea Level Pressure 30.06 in    
Wind  
Wind Speed 9 mph (WSW)    
Max Wind Speed 13 mph    
Max Gust Speed -    
Visibility 10 miles    
Events      
Averages and records for this station are not official NWS values.
T = Trace of Precipitation, MM = Missing Value Source: NWS Daily Summary

Daily Weather History Graph

Daily Weather History Graph

Search for Another Location

Airport or City:

Astronomy

Oct. 26, 2013 Rise Set
Actual Time 8:02 AM CDT 7:08 PM CDT
Civil Twilight 7:37 AM CDT 7:33 PM CDT
Nautical Twilight 7:09 AM CDT 8:01 PM CDT
Astronomical Twilight 6:41 AM CDT 8:29 PM CDT
Moon 12:36 AM CDT (10/26) 2:16 PM CDT (10/26)
Length of Visible Light 11h 55m
Length of Day
11h 06m
Waning Gibbous, 53% of the Moon is Illuminated
Oct 26
Waning Gibbous
Oct 26
Last Quarter
Nov 3
New
Nov 9
First Quarter
Nov 17
Full

Hourly Weather History & Observations

Time (CDT) Temp. Dew Point Humidity Pressure Visibility Wind Dir Wind Speed Gust Speed Precip Events Conditions
12:53 AM 57.9 °F 48.9 °F 72% 30.05 in 10.0 mi South 11.5 mph - N/A   Clear
1:53 AM 57.0 °F 48.9 °F 74% 30.04 in 10.0 mi South 8.1 mph - N/A   Clear
2:53 AM 57.9 °F 48.9 °F 72% 30.03 in 10.0 mi South 12.7 mph - N/A   Clear
3:53 AM 55.9 °F 48.0 °F 75% 30.02 in 10.0 mi South 8.1 mph - N/A   Clear
4:53 AM 55.0 °F 48.0 °F 77% 30.04 in 10.0 mi SSW 9.2 mph - N/A   Clear
5:53 AM 53.1 °F 46.9 °F 80% 30.06 in 10.0 mi SW 6.9 mph - N/A   Clear
6:53 AM 52.0 °F 48.0 °F 86% 30.07 in 10.0 mi WSW 10.4 mph - N/A   Clear
7:53 AM 52.0 °F 48.0 °F 86% 30.08 in 10.0 mi SW 8.1 mph - N/A   Clear
8:53 AM 54.0 °F 50.0 °F 86% 30.09 in 10.0 mi SW 9.2 mph - N/A   Clear
9:53 AM 60.1 °F 51.1 °F 72% 30.11 in 10.0 mi West 9.2 mph - N/A   Clear
10:53 AM 64.9 °F 52.0 °F 63% 30.11 in 10.0 mi West 6.9 mph - N/A   Clear
11:53 AM 68.0 °F 51.1 °F 55% 30.10 in 10.0 mi Variable 4.6 mph - N/A   Clear
12:53 PM 71.1 °F 50.0 °F 47% 30.09 in 10.0 mi NNW 5.8 mph - N/A   Clear
1:53 PM 73.0 °F 50.0 °F 44% 30.07 in 10.0 mi NW 9.2 mph - N/A   Clear
2:53 PM 75.0 °F 48.9 °F 40% 30.04 in 10.0 mi NW 6.9 mph - N/A   Clear
3:53 PM 75.9 °F 46.9 °F 36% 30.03 in 10.0 mi Variable 4.6 mph - N/A   Clear
4:53 PM 75.9 °F 46.0 °F 35% 30.02 in 10.0 mi NNW 8.1 mph - N/A   Clear
5:53 PM 75.9 °F 46.9 °F 36% 30.02 in 10.0 mi NNE 8.1 mph - N/A   Scattered Clouds
6:53 PM 73.0 °F 46.9 °F 39% 30.04 in 10.0 mi NNE 5.8 mph - N/A   Mostly Cloudy
7:53 PM 70.0 °F 46.9 °F 44% 30.06 in 10.0 mi ENE 4.6 mph - N/A   Mostly Cloudy
8:53 PM 68.0 °F 48.0 °F 49% 30.08 in 10.0 mi Calm Calm - N/A   Scattered Clouds
9:53 PM 64.0 °F 48.0 °F 56% 30.08 in 10.0 mi South 4.6 mph - N/A   Clear
10:53 PM 62.1 °F 46.9 °F 58% 30.08 in 10.0 mi SSW 10.4 mph - N/A   Clear
11:53 PM 61.0 °F 46.0 °F 58% 30.08 in 10.0 mi WSW 8.1 mph - N/A   Clear